sat.trackr.live / text

‹ back to catalog

STARLINK-30710

NORAD 57938 · 2023-148D

PAYLOAD ACTIVE UNKNOWN

§ Identity

Operator
Country
US
Launch date
2023-09-25
Launch site
AFWTR
Launch vehicle
Mass (kg)
RCS (m²)

Purposes: comms

External: N2YO · Heavens-Above · Gunter

§ Orbital elements

Epoch: 2026-09-20T06:47:44.057184Z

Period
93.85 min
Inclination
53.1621°
Eccentricity
0.0001597
Mean motion
15.34399593 rev/d
Perigee alt
461.6 km
Apogee alt
463.8 km
Semi-major
6,840.8 km
B*
5.4915e-5
RAAN
186.4265°
Arg perigee
82.9704°
Mean anomaly
277.1481°
Rev number
16,840

§ Raw data

STARLINK-307101 57938U 23148D   26263.28314881  .00001479  00000+0  54915-4 0  99922 57938  53.1621 186.4265 0001597  82.9704 277.1481 15.34399593168406

JSON: /api/v1/satellites/57938 · /tle

For live sub-satellite position, see the globe view (requires WebGL).

§ Visibility from observer

Set your observer location to see the next 7 days of passes ≥ 10°. The values pass through the URL so the page stays shareable.

No JS? Fill the form by hand. The geolocation button needs JavaScript.